sat.trackr.live / text

‹ back to catalog

STARLINK-2358

NORAD 47898 · 2021-021AQ

PAYLOAD ACTIVE UNKNOWN

§ Identity

Operator
Country
US
Launch date
2021-03-14
Launch site
AFETR
Launch vehicle
Mass (kg)
RCS (m²)

Purposes: comms

External: N2YO · Heavens-Above · Gunter

§ Orbital elements

Epoch: 2026-09-20T00:34:27.494112Z

Period
94.01 min
Inclination
53.1599°
Eccentricity
0.0001189
Mean motion
15.31710662 rev/d
Perigee alt
469.9 km
Apogee alt
471.5 km
Semi-major
6,848.8 km
B*
4.4049e-5
RAAN
83.6892°
Arg perigee
94.5476°
Mean anomaly
265.5661°
Rev number
30,597

§ Raw data

STARLINK-23581 47898U 21021AQ  26263.02392933  .00001002  00000+0  44049-4 0  99992 47898  53.1599  83.6892 0001189  94.5476 265.5661 15.31710662305977

JSON: /api/v1/satellites/47898 · /tle

For live sub-satellite position, see the globe view (requires WebGL).

§ Visibility from observer

Set your observer location to see the next 7 days of passes ≥ 10°. The values pass through the URL so the page stays shareable.

No JS? Fill the form by hand. The geolocation button needs JavaScript.